(87983) = 2000 TB57 = 2001 XF176

Discovered at Anderson Mesa on 2000-10-02 by LONEOS.

Orbit

Orbit type: Main Belt

Note: WebGL enabled browser required.

epoch2024-03-31.0
epoch JD2460400.5
perihelion date2021-11-19.61677
perihelion JD2459538.11677
argument of perihelion (°)245.63716
ascending node (°)111.79355
inclination (°)11.94338
eccentricity0.1286870
perihelion distance (AU)2.6523413
Tisserand w.r.t. Jupiter3.2
ΔV w.r.t. Earth (km/sec)10.8
semimajor axis (AU)3.0440739
mean anomaly (°)160.03735
mean daily motion (°/day)0.18557570
aphelion distance (AU)3.436
period (years)5.31
P-vector [x]0.98068440
P-vector [y]0.02714209
P-vector [z]-0.19370443
Q-vector [x]0.03653598
Q-vector [y]0.94747530
Q-vector [z]0.31773524
absolute magnitude15.23
phase slope0.15
uncertainty0
referenceMPEC 2024-F28
observations used633
oppositions20
arc length (days)10337
first opposition used1995
last opposition used2024
residual rms (arc-secs)0.71
perturbers coarse indicatorM-v
perturbers precise indicator003Ek
first observation date used1995-11-29.0
last observation date used2024-03-18.0
computer nameMPCLINUX
JD of orbit computation2456937.525692
perihelion JD uncertainty (days)1.3047E-04
argument of perihelion uncertainty (°)3.3776E-05
ascending node uncertainty (°)2.6636E-05
inclination uncertainty (°)5.1546E-06
eccentricity uncertainty 5.0981E-08
perihelion distance uncertainty (AU)1.5352E-07
Minimum Orbit Intersection Distances (in AU)
for orbit epoch: 2460400.5, reference: E2024-GF4
Mercury2.27721
Venus1.93374
Earth1.67387
Mars1.30131
Jupiter2.03053
Saturn5.87366
Uranus15.0639
Neptune26.9695

Observations

639 total observations over interval: 1995 11 29.59080 – 2024 03 18.173426
These data are available for download (format description).

Date (UT) J2000 RA J2000 Dec Magn Location Ref
1995 11 29.59080 02 44 45.43 -00 42 31.9   327 – Peking Observatory, Xinglong Station MPS 49212
1995 11 29.61146 02 44 44.66 -00 42 28.3   327 – Peking Observatory, Xinglong Station MPS 49212
1995 11 29.62843 02 44 43.95 -00 42 26.3 20.0   327 – Peking Observatory, Xinglong Station MPS 49212
2000 09 10.35090 01 02 53.39 -12 08 32.0 19.3 R 699 – Lowell Observatory-LONEOS MPS 30189
2000 09 10.36951 01 02 52.86 -12 08 40.7   699 – Lowell Observatory-LONEOS MPS 30189
2000 09 10.38808 01 02 52.19 -12 08 49.4   699 – Lowell Observatory-LONEOS MPS 30189
2000 09 10.40670 01 02 51.70 -12 08 57.1   699 – Lowell Observatory-LONEOS MPS 30189
2000 09 29.26650 00 50 47.52 -14 22 35.3 18.5 R 699 – Lowell Observatory-LONEOS MPS 26695
2000 09 29.27579 00 50 47.05 -14 22 39.0   699 – Lowell Observatory-LONEOS MPS 26695
2000 09 29.28513 00 50 46.67 -14 22 42.5   699 – Lowell Observatory-LONEOS MPS 26695
2000 09 29.29444 00 50 46.18 -14 22 45.4   699 – Lowell Observatory-LONEOS MPS 26695
2000 09 30.27099 00 50 02.79 -14 28 24.3 18.5 R 699 – Lowell Observatory-LONEOS MPS 25211
2000 09 30.28027 00 50 02.37 -14 28 28.2   699 – Lowell Observatory-LONEOS MPS 25211
2000 09 30.28960 00 50 01.95 -14 28 31.4   699 – Lowell Observatory-LONEOS MPS 25211
2000 09 30.29886 00 50 01.56 -14 28 34.7   699 – Lowell Observatory-LONEOS MPS 25211
2000 10 02.27404 00 48 33.12 -14 39 27.4 18.5 R 699 – Lowell Observatory-LONEOS MPS 21492
2000 10 02.29332 00 48 32.24 -14 39 34.0   699 – Lowell Observatory-LONEOS MPS 21492
2000 10 02.31251 00 48 31.30 -14 39 39.4   699 – Lowell Observatory-LONEOS MPS 21492
2000 10 02.33182 00 48 30.39 -14 39 46.2   699 – Lowell Observatory-LONEOS MPS 21492
2000 10 05.33330 00 46 15.80 -14 54 46.3 20.2   608 – Haleakala-AMOS MPS 21492
2000 10 05.34441 00 46 15.25 -14 54 49.6 19.4   608 – Haleakala-AMOS MPS 21492
2000 10 05.35536 00 46 14.80 -14 54 52.7 19.4   608 – Haleakala-AMOS MPS 21492
2000 10 27.22123 00 31 46.59 -15 41 12.6 18.3   704 – Lincoln Laboratory ETS, New Mexico MPS 21492
2000 10 27.23527 00 31 46.21 -15 41 11.6 18.8   704 – Lincoln Laboratory ETS, New Mexico MPS 21492
2000 10 27.25025 00 31 45.65 -15 41 13.4 19.0   704 – Lincoln Laboratory ETS, New Mexico MPS 21492
2001 12 09.39338 07 26 15.20 +18 28 41.0 19.8 V 691 – Steward Observatory, Kitt Peak-Spacewatch MPS 49212
2001 12 09.41578 07 26 14.60 +18 28 46.4 20.4 V 691 – Steward Observatory, Kitt Peak-Spacewatch MPS 49212
2001 12 09.43807 07 26 13.81 +18 28 51.3 20.2 V 691 – Steward Observatory, Kitt Peak-Spacewatch MPS 49212
2001 12 14.37592 07 23 06.64 +18 47 43.3 19.7   704 – Lincoln Laboratory ETS, New Mexico MPS 45341
2001 12 14.39112 07 23 06.02 +18 47 46.8 19.9   704 – Lincoln Laboratory ETS, New Mexico MPS 45341
2001 12 14.40632 07 23 05.35 +18 47 50.6 20.1   704 – Lincoln Laboratory ETS, New Mexico MPS 45341
2001 12 17.37541 07 20 59.32 +18 59 59.1 19.3   704 – Lincoln Laboratory ETS, New Mexico MPS 45341
2001 12 17.38270 07 20 59.07 +19 00 00.6 19.7   644 – Palomar Mountain/NEAT MPS 45341
2001 12 17.39061 07 20 58.61 +19 00 02.4 19.7   704 – Lincoln Laboratory ETS, New Mexico MPS 45341
2001 12 17.39308 07 20 58.61 +19 00 03.4 19.9   644 – Palomar Mountain/NEAT MPS 45341
2001 12 17.40496 07 20 58.07 +19 00 06.4 19.7   644 – Palomar Mountain/NEAT MPS 45341
2001 12 17.40583 07 20 57.94 +19 00 06.3 20.0   704 – Lincoln Laboratory ETS, New Mexico MPS 45341
2001 12 17.42106 07 20 57.24 +19 00 09.7 19.5   704 – Lincoln Laboratory ETS, New Mexico MPS 45341
2001 12 17.43627 07 20 56.54 +19 00 13.8 19.6   704 – Lincoln Laboratory ETS, New Mexico MPS 45341
2001 12 18.28347 07 20 19.09 +19 03 47.0 20.1   644 – Palomar Mountain/NEAT MPS 46948
2001 12 18.35117 07 20 15.97 +19 04 04.5 19.9   644 – Palomar Mountain/NEAT MPS 46948
2001 12 18.41450 07 20 13.00 +19 04 20.7 19.8   644 – Palomar Mountain/NEAT MPS 46948
2002 01 09.32555 07 01 23.62 +20 44 17.3 19.0   704 – Lincoln Laboratory ETS, New Mexico MPS 54761
2002 01 09.34070 07 01 22.80 +20 44 20.8 19.3   704 – Lincoln Laboratory ETS, New Mexico MPS 54761
2002 01 09.37103 07 01 21.13 +20 44 29.3 19.4   704 – Lincoln Laboratory ETS, New Mexico MPS 54761
2002 01 09.38632 07 01 20.24 +20 44 33.9 19.0   704 – Lincoln Laboratory ETS, New Mexico MPS 54761
2002 01 15.24230 06 56 11.64 +21 11 23.8 19.4   704 – Lincoln Laboratory ETS, New Mexico MPS 54761
2002 01 15.27266 06 56 10.10 +21 11 32.1 19.4   704 – Lincoln Laboratory ETS, New Mexico MPS 54761
2002 01 15.28783 06 56 09.32 +21 11 36.5 19.9   704 – Lincoln Laboratory ETS, New Mexico MPS 54761
2002 01 15.30302 06 56 08.49 +21 11 39.8 19.4   704 – Lincoln Laboratory ETS, New Mexico MPS 54761
2002 01 19.23438 06 52 51.65 +21 29 08.1 19.3   704 – Lincoln Laboratory ETS, New Mexico MPS 54761
2002 01 19.24950 06 52 50.94 +21 29 11.2 19.7   704 – Lincoln Laboratory ETS, New Mexico MPS 54761
2002 01 19.26462 06 52 50.20 +21 29 15.7 19.8   704 – Lincoln Laboratory ETS, New Mexico MPS 54761
2002 01 19.27975 06 52 49.42 +21 29 19.9 19.7   704 – Lincoln Laboratory ETS, New Mexico MPS 54761
2002 12 11.479560 11 58 25.191 +09 49 17.56 21.51 V 645 – Apache Point-Sloan Digital Sky Survey MPS 275100
2002 12 11.483032 11 58 25.330 +09 49 17.35 22.20   645 – Apache Point-Sloan Digital Sky Survey MPS 275100
2003 03 08.22131 11 59 09.54 +15 53 12.4 19.6 R 699 – Lowell Observatory-LONEOS MPS 73870
2003 03 08.23479 11 59 08.84 +15 53 18.7   699 – Lowell Observatory-LONEOS MPS 73870
2003 03 08.24826 11 59 08.39 +15 53 24.0   699 – Lowell Observatory-LONEOS MPS 73870
2003 03 08.26176 11 59 07.80 +15 53 28.8   699 – Lowell Observatory-LONEOS MPS 73870
2004 04 19.42455 16 17 47.09 -07 10 59.6 21.3 V 691 – Steward Observatory, Kitt Peak-Spacewatch MPS 104963
2004 04 19.45117 16 17 46.36 -07 10 55.1 21.2 V 691 – Steward Observatory, Kitt Peak-Spacewatch MPS 104963
2004 04 19.48150 16 17 45.51 -07 10 50.1 20.5 V 691 – Steward Observatory, Kitt Peak-Spacewatch MPS 104963
2004 04 26.41610 16 14 11.21 -06 52 20.2 20.6 V 691 – Steward Observatory, Kitt Peak-Spacewatch MPS 106121
2004 04 26.44808 16 14 10.04 -06 52 14.7 21.2 V 691 – Steward Observatory, Kitt Peak-Spacewatch MPS 106121
2004 04 26.47472 16 14 09.08 -06 52 11.0 21.4 V 691 – Steward Observatory, Kitt Peak-Spacewatch MPS 106121
2004 05 13.44053 16 02 20.36 -06 16 27.6 20.2 V 291 – LPL/Spacewatch II MPS 106683
2004 05 13.44607 16 02 20.10 -06 16 27.1 20.1 V 291 – LPL/Spacewatch II MPS 106683
2004 05 13.45832 16 02 19.51 -06 16 26.0 20.2 V 291 – LPL/Spacewatch II MPS 106683
2004 05 23.29984 15 54 22.35 -06 05 49.2 19.7   704 – Lincoln Laboratory ETS, New Mexico MPS 108057
2004 05 23.30849 15 54 21.94 -06 05 48.2 20.0   704 – Lincoln Laboratory ETS, New Mexico MPS 108057
2004 05 23.31881 15 54 21.46 -06 05 49.9 19.7   704 – Lincoln Laboratory ETS, New Mexico MPS 108057
2004 05 23.32947 15 54 20.87 -06 05 48.2 20.2   704 – Lincoln Laboratory ETS, New Mexico MPS 108057
2005 07 18.46048 22 36 36.68 -17 55 46.6 19.4   644 – Palomar Mountain/NEAT MPS 138578
2005 07 18.47276 22 36 36.53 -17 55 51.9 19.4   644 – Palomar Mountain/NEAT MPS 138578
2005 07 18.49085 22 36 36.31 -17 55 59.8 19.6   644 – Palomar Mountain/NEAT MPS 138578
2005 07 27.38408 22 34 14.21 -19 05 34.0 19.2   644 – Palomar Mountain/NEAT MPS 138785
2005 07 27.39739 22 34 13.90 -19 05 40.7 19.3   644 – Palomar Mountain/NEAT MPS 138785
2005 07 27.40471 22 34 13.73 -19 05 44.1 19.4   644 – Palomar Mountain/NEAT MPS 138785
2005 07 27.41836 22 34 13.42 -19 05 51.2 19.3   644 – Palomar Mountain/NEAT MPS 138785
2005 07 27.42542 22 34 13.23 -19 05 54.6 19.3   644 – Palomar Mountain/NEAT MPS 138785
2005 07 27.44179 22 34 12.86 -19 06 02.6 19.3   644 – Palomar Mountain/NEAT MPS 138785
2005 08 01.58300 22 32 02.76 -19 49 28.8 18.9 V E12 – Siding Spring Survey MPS 139184
2005 08 01.59044 22 32 02.54 -19 49 32.1 18.8 V E12 – Siding Spring Survey MPS 139184
2005 08 01.59803 22 32 02.29 -19 49 37.2 18.8 V E12 – Siding Spring Survey MPS 139184
2005 08 01.60586 22 32 02.07 -19 49 41.2 19.1 V E12 – Siding Spring Survey MPS 139184
2005 09 08.59236 22 06 26.53 -24 40 48.3 18.8 V E12 – Siding Spring Survey MPS 141530
2005 09 08.60221 22 06 26.13 -24 40 51.0 19.1 V E12 – Siding Spring Survey MPS 141530
